This is the latest recevied weather packets stored in our database for station/object KD7AWQ. If no packets are shown the sender has not sent any weather packets the latest 1 day(s).
| Time | Temp. | Humidity | Pressure | Rain* | Wind** | Luminosity | Snow |
|---|---|---|---|---|---|---|---|
| 1778042023 | 13.89° C | 43% | 1182.1 hPa | 0 mm | 7.6 m/s, 293° | 0 W/m² | - |
| 1778041721 | 13.89° C | 43% | 1182 hPa | 0 mm | 5.36 m/s, 312° | 0 W/m² | - |
| 1778041420 | 13.89° C | 43% | 1182 hPa | 0 mm | 4.92 m/s, 304° | 0 W/m² | - |
| 1778041118 | 13.89° C | 43% | 1182 hPa | 0 mm | 5.36 m/s, 296° | 0 W/m² | - |
| 1778040815 | 14.44° C | 42% | 1181.9 hPa | 0 mm | 6.71 m/s, 312° | 0 W/m² | - |
| 1778040512 | 13.89° C | 43% | 1182.1 hPa | 0 mm | 5.36 m/s, 282° | 0 W/m² | - |
| 1778040209 | 14.44° C | 42% | 1182 hPa | 0 mm | 6.71 m/s, 289° | 0 W/m² | - |
| 1778039905 | 14.44° C | 42% | 1182 hPa | 0 mm | 6.71 m/s, 298° | 0 W/m² | - |
| 1778039603 | 14.44° C | 42% | 1181.9 hPa | 0 mm | 4.47 m/s, 287° | 0 W/m² | - |
| 1778039300 | 14.44° C | 42% | 1181.9 hPa | 0 mm | 5.36 m/s, 298° | 0 W/m² | - |
| 1778038997 | 14.44° C | 42% | 1181.6 hPa | 0 mm | 6.71 m/s, 304° | 0 W/m² | - |
| 1778038694 | 14.44° C | 42% | 1181.6 hPa | 0 mm | 7.15 m/s, 296° | 0 W/m² | - |
| 1778038391 | 15° C | 42% | 1181.4 hPa | 0 mm | 5.81 m/s, 301° | 0 W/m² | - |
| 1778038088 | 15° C | 42% | 1181.2 hPa | 0 mm | 7.15 m/s, 301° | 0 W/m² | - |
| 1778037785 | 15° C | 42% | 1181.1 hPa | 0 mm | 5.81 m/s, 310° | 0 W/m² | - |
| 1778037481 | 15° C | 42% | 1181.1 hPa | 0 mm | 5.36 m/s, 287° | 0 W/m² | - |
| 1778037179 | 15° C | 42% | 1181.2 hPa | 0 mm | 6.26 m/s, 298° | 0 W/m² | - |
| 1778036877 | 15° C | 42% | 1181.2 hPa | 0 mm | 3.13 m/s, 305° | 0 W/m² | - |
| 1778036574 | 15° C | 41% | 1181 hPa | 0 mm | 5.36 m/s, 331° | 0 W/m² | - |
| 1778036271 | 15° C | 41% | 1180.7 hPa | 0 mm | 5.36 m/s, 303° | 0 W/m² | - |
| 1778035967 | 15° C | 41% | 1180.7 hPa | 0 mm | 7.15 m/s, 333° | 0 W/m² | - |
| 1778035664 | 15.56° C | 41% | 1180.9 hPa | 0 mm | 5.36 m/s, 283° | 0 W/m² | - |
| 1778035361 | 15.56° C | 41% | 1180.7 hPa | 0 mm | 6.26 m/s, 305° | 0 W/m² | - |
| 1778035057 | 15.56° C | 41% | 1180.5 hPa | 0 mm | 6.71 m/s, 282° | 0 W/m² | - |
| 1778034754 | 15.56° C | 41% | 1180.6 hPa | 0 mm | 7.6 m/s, 318° | 0 W/m² | - |
* Rain latest hour (hover to see other rain measurements)
** Current wind speed in m/s (hover to see current wind gust speed)